Location: Aiyekoto
(8.4333°N, 4.3667°E)
Time: 22:53:30
(UTC+00:00)

ATLAS 5 CENTAUR R/B - Pass Details

Date: 10 October 2020
Orbit: 527 x 1131 km, 63.4° (Epoch: 28 October)

Event Time Altitude Azimuth Distance (km) Brightness Sun altitude
Rises 04:13:52 0° 359° (N) 3,648 5.4 -19.6°
Reaches altitude 10° 04:16:50 10° 12° (NNE) 2,789 5.0 -18.9°
Maximum altitude 04:22:14 26° 65° (ENE) 1,999 4.8 -17.5°
Drops below altitude 10° 04:27:58 10° 118° (ESE) 2,991 6.1 -16.1°
Sets 04:31:14 0° 130° (SE) 3,967 6.6 -15.3°
